Location: Bazugues
(43.4465°N, 0.3432°E)
Time: 07:08:20
(UTC+00:00)

Meteor 1-16 Rocket - Pass Details

Date: 12 January 2026
Orbit: 789 x 905 km, 81.2° (Epoch: 10 February)

Event Time Altitude Azimuth Distance (km) Brightness Sun altitude
Rises 18:06:34 0° 353° (N) 3,295 7.2 -14.5°
Reaches altitude 10° 18:09:00 10° 358° (N) 2,362 6.4 -15.0°
Maximum altitude 18:14:13 56° 77° (ENE) 944 4.1 -15.9°
Drops below altitude 10° 18:19:27 10° 155° (SSE) 2,376 6.4 -16.8°
Sets 18:21:54 0° 160° (SSE) 3,316 7.2 -17.2°
